Terug naar catalogus

BREEZE-M R/B

ActiefHEO
NORAD 28998·ROCKET BODY·🇷🇺 Russia

Gelanceerd Jun 6, 2003 vanaf Baikonur Cosmodrome

Loading…

Volgende Passages (komende 24 uur)

TLE

VerouderendSource: Space-Track

Epoch: Aug 30, 2026, 18:15 UTC

1 28998U 03024C   26242.76103580 -.00000051  00000-0  00000+0 0  9997
2 28998  16.7268 124.3462 5089861  86.8140  37.6877  1.82403886 87546

Volg BREEZE-M R/B in realtime met AllMySat

Download on the App Store